TimeMDT,TemperatureF,Dew PointF,Humidity,Sea Level PressureIn,VisibilityMPH,Wind Direction,Wind SpeedMPH,Gust SpeedMPH,PrecipitationIn,Events,Conditions,WindDirDegrees,DateUTC
12:54 AM,28.0,26.1,92,29.96,10.0,WNW,8.1,-,N/A,,Scattered Clouds,290,2014-03-18 06:54:00
1:54 AM,27.0,26.1,96,30.00,10.0,West,11.5,-,N/A,,Mostly Cloudy,270,2014-03-18 07:54:00
2:54 AM,28.0,26.1,92,30.00,10.0,West,9.2,-,N/A,,Overcast,270,2014-03-18 08:54:00
3:13 AM,28.0,26.1,92,29.92,10.0,West,10.4,-,N/A,,Overcast,280,2014-03-18 09:13:00
3:42 AM,28.0,26.1,92,29.92,10.0,West,10.4,-,N/A,,Overcast,270,2014-03-18 09:42:00
3:54 AM,27.0,25.0,92,30.01,10.0,West,10.4,-,N/A,,Overcast,260,2014-03-18 09:54:00
4:49 AM,24.8,23.0,93,29.93,10.0,West,10.4,-,N/A,,Mostly Cloudy,260,2014-03-18 10:49:00
4:54 AM,24.1,23.0,96,30.03,10.0,WSW,10.4,-,N/A,,Mostly Cloudy,250,2014-03-18 10:54:00
5:54 AM,21.0,19.0,92,30.06,10.0,WSW,5.8,-,N/A,,Scattered Clouds,240,2014-03-18 11:54:00
6:54 AM,21.0,19.0,92,30.06,10.0,SSW,9.2,-,N/A,,Clear,210,2014-03-18 12:54:00
7:54 AM,21.0,19.0,92,30.08,10.0,SW,9.2,-,N/A,,Clear,230,2014-03-18 13:54:00
8:54 AM,26.1,23.0,88,30.06,10.0,SW,4.6,-,N/A,,Partly Cloudy,230,2014-03-18 14:54:00
9:54 AM,28.9,24.1,82,30.08,10.0,WNW,5.8,-,N/A,,Overcast,290,2014-03-18 15:54:00
10:54 AM,28.9,24.1,82,30.11,10.0,West,11.5,-,N/A,,Overcast,270,2014-03-18 16:54:00
11:16 AM,28.9,25.0,85,30.02,1.8,West,6.9,-,0.00,Snow,Light Snow,270,2014-03-18 17:16:00
11:24 AM,28.0,25.0,88,30.02,0.5,West,8.1,-,0.00,Fog-Snow,Snow,280,2014-03-18 17:24:00
11:32 AM,28.0,26.1,92,30.02,0.2,West,5.8,-,0.01,Fog-Snow,Heavy Snow,260,2014-03-18 17:32:00
11:37 AM,28.0,27.0,96,30.03,0.8,WSW,5.8,-,0.01,Snow,Light Snow,250,2014-03-18 17:37:00
11:41 AM,28.0,27.0,96,30.03,2.0,WSW,4.6,-,0.02,Snow,Light Snow,250,2014-03-18 17:41:00
11:47 AM,28.0,27.0,96,30.03,3.0,SW,5.8,-,0.02,Snow,Light Snow,230,2014-03-18 17:47:00
11:54 AM,28.9,27.0,92,30.12,4.0,WSW,6.9,-,0.02,Snow,Light Snow,240,2014-03-18 17:54:00
12:36 PM,30.0,27.0,88,30.03,10.0,West,8.1,-,0.00,,Overcast,280,2014-03-18 18:36:00
12:47 PM,30.9,28.0,89,30.03,10.0,West,9.2,-,0.00,,Overcast,270,2014-03-18 18:47:00
12:54 PM,30.9,28.0,89,30.12,10.0,West,8.1,-,0.00,,Overcast,280,2014-03-18 18:54:00
1:28 PM,32.0,27.0,82,30.02,10.0,WNW,11.5,-,N/A,,Overcast,300,2014-03-18 19:28:00
1:52 PM,32.0,28.4,87,30.01,9.0,WNW,9.2,-,0.00,,Overcast,290,2014-03-18 19:52:00
1:54 PM,32.0,27.0,82,30.11,9.0,NW,9.2,-,0.00,,Overcast,310,2014-03-18 19:54:00
2:54 PM,34.0,27.0,75,30.09,10.0,West,10.4,-,0.00,,Mostly Cloudy,280,2014-03-18 20:54:00
3:54 PM,33.1,24.1,70,30.10,9.0,West,13.8,-,0.00,Snow,Light Snow,260,2014-03-18 21:54:00
4:54 PM,35.1,21.0,57,30.08,5.0,West,13.8,-,0.00,Snow,Light Snow,260,2014-03-18 22:54:00
5:54 PM,36.0,19.9,52,30.09,10.0,West,12.7,-,0.00,,Overcast,270,2014-03-18 23:54:00
6:54 PM,35.1,23.0,61,30.09,10.0,West,12.7,-,N/A,,Overcast,260,2014-03-19 00:54:00
8:54 PM,27.0,19.9,75,30.11,10.0,SW,9.2,-,N/A,,Mostly Cloudy,230,2014-03-19 02:54:00
9:54 PM,28.0,19.0,69,30.10,10.0,West,10.4,-,N/A,,Scattered Clouds,260,2014-03-19 03:54:00
10:54 PM,30.0,19.9,66,30.09,10.0,WSW,10.4,-,N/A,,Overcast,240,2014-03-19 04:54:00
11:54 PM,28.9,19.9,69,30.10,10.0,WSW,10.4,-,N/A,,Overcast,250,2014-03-19 05:54:00